Location: Izdebno
(52.6670°N, 16.2170°E)
Time: 04:16:55
(UTC+02:00)

Transit 2A - Pass Details

Date: 23 February 2024
Orbit: 596 x 956 km, 66.7° (Epoch: 21 April)

Event Time Altitude Azimuth Distance (km) Brightness Sun altitude
Rises 23:43:41 0° 293° (WNW) 2,851 - -46.8°
Reaches altitude 10° 23:46:52 10° 318° (NW) 1,972 - -46.9°
Maximum altitude 23:49:20 15° 352° (N) 1,719 - -46.9°
Drops below altitude 10° 23:51:52 10° 27° (NNE) 2,038 - -46.9°
Sets 23:55:15 0° 51° (NE) 3,014 - -47.0°
